Theta_e
322 313 311 310 299 296 293 297 303 303 304 305 308 309 310 310 312 304 328 334 336 342 344 344 347 348 346 348 348 348 346 343 343 342 342 343 343 341 339 339 341 343 345 346 345 344 343 341 341
314 315 311 305 294 290 291 298 302 304 307 309 310 306 308 311 321 323 325 334 341 342 343 342 344 347 346 349 348 348 347 344 342 341 339 342 342 340 339 339 340 339 341 343 343 342 341 339 340
314 314 305 299 294 291 291 297 303 305 308 308 304 308 309 315 322 324 330 339 341 341 341 341 343 346 346 347 349 348 347 344 341 341 340 340 341 340 339 338 338 336 337 338 338 339 338 338 339
309 305 303 295 292 296 295 300 305 303 304 306 305 306 313 321 324 327 334 337 336 339 340 341 344 346 346 346 348 348 347 345 343 340 339 338 339 339 338 337 337 336 337 336 337 337 336 337 340
306 302 295 292 292 295 295 304 305 302 302 302 304 304 311 325 329 329 331 334 337 337 339 341 343 344 345 346 347 346 347 346 344 340 339 338 338 339 339 338 336 335 335 335 335 337 337 339 338
299 299 291 289 291 294 297 303 305 302 301 302 306 309 312 326 326 326 331 335 338 336 339 340 336 339 342 344 345 345 345 346 344 341 339 338 337 338 340 339 336 335 334 335 335 337 337 337 336
298 296 292 292 293 294 297 302 302 300 301 301 304 307 315 322 325 327 330 337 338 339 338 338 338 336 336 338 339 341 343 344 343 342 340 339 339 338 338 339 336 334 334 335 336 336 336 335 334
301 298 292 292 293 294 299 301 301 300 299 303 305 304 310 320 326 327 328 336 337 337 337 336 335 336 336 335 333 335 338 339 340 337 334 332 332 332 333 332 335 335 335 333 333 335 334 333 332
304 294 292 293 295 296 300 298 300 300 301 302 306 307 316 326 326 324 324 329 334 335 336 335 334 334 334 333 331 330 332 333 334 332 328 326 327 328 328 329 334 335 335 332 331 332 331 329 328
296 295 297 300 299 297 299 299 299 297 298 300 307 321 325 326 324 322 322 325 330 330 332 335 334 332 333 336 331 331 331 332 333 334 328 330 327 326 327 325 328 331 331 331 332 331 329 325 322
298 295 299 299 300 302 299 298 299 297 294 300 304 317 322 322 322 322 321 323 327 332 333 333 333 334 331 331 330 330 329 330 331 332 329 333 327 324 323 322 322 322 322 322 323 321 319 317 318
295 300 298 300 301 300 299 300 297 298 299 303 308 320 320 320 321 322 322 323 325 331 333 334 333 335 335 332 330 329 329 327 330 330 331 333 326 322 321 320 321 320 320 317 315 315 316 316 318
296 297 299 300 300 299 301 297 298 297 298 303 310 319 318 319 320 322 325 325 325 326 333 333 333 335 337 334 332 331 328 328 328 330 330 331 325 323 322 321 320 320 319 318 316 315 315 315 316
298 297 297 298 297 297 298 295 297 298 299 304 312 314 317 318 318 318 321 322 326 328 331 332 332 334 337 336 335 333 333 332 332 329 329 329 327 325 323 320 320 319 318 317 315 315 314 314 316
298 294 295 295 296 295 297 294 294 295 298 299 301 304 312 315 317 317 319 320 327 329 330 331 331 332 333 335 335 335 334 333 331 331 331 328 327 326 324 320 319 318 317 316 314 313 313 313 315
294 292 289 292 296 296 295 290 296 296 296 296 297 297 300 306 313 315 318 320 322 328 329 331 333 331 332 334 335 335 335 333 332 331 331 331 328 325 323 321 319 318 316 313 312 312 311 311 312
289 284 287 290 296 295 294 290 294 295 295 294 294 294 296 298 302 309 314 319 321 326 327 330 331 331 330 331 335 335 334 334 333 332 330 329 330 327 323 321 320 319 316 313 312 311 310 309 309
284 284 287 288 293 293 290 290 292 294 295 295 295 294 294 296 300 304 308 317 320 322 325 329 331 330 329 330 333 334 334 334 334 333 331 330 328 329 326 322 321 319 315 313 311 309 309 308 308
289 288 286 287 293 292 291 290 292 294 293 292 293 295 294 295 299 301 306 311 316 318 322 326 329 329 329 326 328 330 330 331 332 332 331 329 329 328 326 326 324 321 317 314 313 311 309 307 308
290 287 285 288 292 290 289 289 292 293 293 294 295 295 295 294 297 298 300 300 302 303 311 318 327 329 329 328 328 329 330 331 332 333 331 330 328 328 327 325 324 323 319 317 315 309 307 307 307
288 287 285 286 288 288 285 285 288 293 294 294 295 295 296 296 296 297 297 298 299 298 298 301 307 324 329 328 326 325 330 330 329 330 330 329 328 326 326 325 325 323 321 318 314 310 309 309 308
286 290 290 288 285 280 283 278 283 287 290 292 294 294 295 295 295 296 297 298 299 301 302 302 302 302 313 326 326 325 324 324 327 328 329 329 327 326 325 324 324 323 322 319 317 314 312 311 309
288 291 289 288 286 282 281 279 284 285 286 291 292 293 293 295 296 298 299 300 302 303 304 306 305 301 301 320 325 324 320 322 322 326 327 327 326 325 324 323 323 321 320 319 316 313 311 311 311
293 290 289 286 283 278 280 280 279 284 289 287 290 292 295 295 296 297 299 301 302 303 305 307 304 299 301 305 318 322 320 322 321 322 323 325 325 324 323 322 321 321 320 318 317 316 313 312 312
290 286 279 277 276 276 279 279 283 287 288 292 292 294 294 294 295 297 298 299 300 301 304 309 307 306 302 307 311 317 320 322 321 320 322 322 322 321 322 321 320 320 320 319 318 315 312 311 309
287 286 280 274 274 276 280 278 284 289 289 291 294 295 295 296 297 297 298 298 299 300 302 307 307 307 308 309 310 311 313 317 319 319 319 319 320 320 320 320 320 319 319 318 316 314 312 311 309
286 284 289 281 273 276 279 282 288 290 289 291 293 294 293 295 296 297 297 298 298 298 300 303 306 307 308 307 307 308 310 312 314 314 314 313 313 312 315 315 315 314 314 313 313 311 310 309 308
288 290 283 283 273 272 277 278 281 287 288 289 291 292 293 294 296 296 296 297 297 298 299 300 301 302 303 303 303 303 304 305 306 306 305 304 305 305 305 305 305 305 304 304 304 303 304 302 303
285 284 285 285 282 275 274 278 285 287 289 289 290 292 293 294 294 295 295 296 296 296 297 297 297 297 297 299 300 300 300 300 299 299 299 299 298 298 297 297 297 297 296 297 297 297 297 297 297
287 286 286 281 279 280 279 280 288 288 291 291 291 293 293 294 294 294 294 294 294 294 294 293 294 294 294 294 294 293 294 294 293 292 293 293 293 293 293 293 293 293 293 293 292 291 292 291 291
Wind_Speed
9 9 2 5 5 5 2 1 6 6 5 2 3 12 9 3 2 5 4 16 17 12 10 10 11 12 12 13 13 14 15 17 17 17 16 17 17 19 18 18 16 17 17 17 18 17 17 14 14
6 7 5 2 5 3 5 4 7 6 5 8 8 5 7 4 3 9 8 15 16 13 10 8 11 12 12 13 14 13 14 16 15 16 16 16 17 18 17 17 15 16 16 16 16 15 14 13 14
5 2 3 3 3 3 4 1 9 5 6 5 3 5 4 3 4 6 13 17 16 13 10 9 11 12 12 11 12 11 13 16 16 15 15 15 15 17 17 17 15 16 16 16 15 14 13 13 15
3 5 5 4 4 7 6 7 9 5 4 5 5 7 5 5 9 9 16 17 13 13 12 11 12 12 12 11 13 11 11 15 16 15 15 14 14 15 16 16 15 15 15 15 15 14 13 13 15
4 3 2 2 2 4 3 7 8 7 5 1 5 2 5 3 10 15 16 14 15 11 11 10 12 11 11 10 12 11 11 15 15 14 14 13 13 13 13 16 14 14 14 14 14 13 12 13 14
3 3 3 6 2 2 3 5 9 6 5 3 7 6 1 5 11 9 12 14 14 14 9 9 11 10 10 10 10 10 10 13 14 14 13 12 12 11 11 15 14 13 14 13 13 13 12 12 12
4 4 5 5 4 2 4 4 8 7 7 2 7 5 5 5 7 9 11 15 13 13 10 8 7 9 9 9 9 10 10 12 13 12 11 10 11 10 10 13 13 12 12 12 12 11 11 11 11
4 4 2 3 6 5 5 3 3 5 2 2 5 6 6 6 9 9 10 13 13 13 10 7 6 6 6 6 8 9 10 10 11 11 10 9 9 9 9 9 12 11 12 11 10 10 9 9 9
2 3 4 6 6 6 5 5 3 1 7 5 4 4 8 12 9 7 8 10 11 10 12 9 7 6 6 6 5 8 9 9 11 10 9 7 4 5 5 6 12 11 11 11 9 7 6 6 5
3 1 5 4 6 6 7 7 7 5 5 4 6 8 9 11 8 8 10 11 10 11 10 12 9 7 6 6 5 5 5 4 4 5 5 3 5 5 5 6 8 9 8 8 6 5 4 4 2
2 4 5 5 3 11 9 5 3 9 2 7 12 11 9 7 7 8 7 10 10 11 8 10 10 9 8 6 4 2 3 3 4 6 5 4 5 4 3 3 3 3 5 2 2 1 1 1 1
2 7 3 4 5 5 10 8 5 5 6 7 13 16 9 9 9 9 9 8 10 12 10 8 8 7 7 6 5 5 4 3 3 5 6 4 3 4 4 3 4 3 3 3 3 1 2 1 2
5 3 1 2 5 4 8 5 5 5 4 6 12 14 10 9 9 7 8 8 9 10 13 12 9 10 6 8 6 5 5 4 5 5 5 4 4 5 4 4 4 4 4 4 3 3 2 0 1
3 2 2 2 2 3 7 2 4 5 6 9 12 10 10 11 10 8 9 9 11 12 13 12 10 10 9 5 5 4 5 6 6 5 5 6 4 4 5 4 5 4 4 4 4 4 3 3 3
6 5 1 2 4 2 3 1 6 4 6 10 10 8 9 11 11 11 11 9 12 11 13 14 12 10 10 9 6 4 4 4 4 5 8 6 5 6 6 4 4 4 4 5 3 3 2 2 2
8 6 5 3 7 1 2 6 8 7 10 9 9 8 9 10 10 10 10 10 10 10 12 14 12 12 11 10 7 5 4 4 4 3 4 7 7 6 5 4 4 4 4 4 3 3 2 2 3
5 6 5 2 6 5 5 5 3 8 9 9 8 9 9 8 8 9 9 10 10 12 11 13 13 15 12 10 6 6 7 5 4 4 4 6 6 7 5 4 4 5 4 4 3 3 3 3 3
7 5 4 6 7 2 6 6 3 4 7 10 8 7 9 9 11 9 8 8 8 9 10 12 11 14 11 7 6 4 5 6 6 6 5 6 5 6 5 4 5 5 4 3 2 3 2 1 1
2 6 6 2 5 6 9 6 10 8 5 8 9 8 8 10 9 9 9 9 7 6 8 11 11 12 10 6 7 6 7 6 6 6 8 7 6 7 6 5 5 5 5 6 5 3 4 2 2
4 7 5 2 2 2 4 10 9 7 8 9 10 9 9 5 7 6 7 6 6 6 5 5 9 13 11 8 7 5 5 3 6 6 7 8 8 8 7 6 5 6 5 5 6 5 2 1 3
6 5 5 6 3 1 2 7 6 9 7 7 9 7 7 10 9 8 7 6 5 3 1 2 5 8 11 11 6 4 4 3 3 4 6 7 8 7 7 7 6 6 5 6 5 5 7 4 3
6 4 8 11 6 4 3 6 7 7 10 8 11 9 8 7 6 6 6 5 5 2 1 0 1 3 5 9 10 11 8 7 5 4 4 6 7 7 7 7 6 6 5 5 5 5 4 3 4
4 4 7 5 5 5 1 2 9 1 5 9 10 9 7 7 8 8 7 6 3 3 1 1 3 3 3 5 8 7 4 4 3 3 6 5 6 7 7 7 7 6 5 5 5 5 5 4 4
7 6 9 6 4 0 5 7 7 3 6 3 4 6 9 8 9 8 6 6 4 3 3 1 3 3 2 4 7 9 9 7 4 3 4 4 4 5 6 6 6 6 5 6 6 6 7 7 6
5 6 3 3 2 7 2 4 10 6 4 6 7 8 7 7 7 7 7 6 4 4 2 4 6 4 2 5 5 6 7 6 8 4 3 5 3 3 5 5 5 4 5 5 5 5 4 4 3
6 6 7 8 5 5 2 7 8 4 1 2 7 9 8 7 7 7 6 5 5 5 4 6 5 6 7 7 7 6 5 4 4 4 4 3 2 3 2 3 2 3 2 2 3 2 3 3 3
6 4 6 8 3 4 5 6 11 3 2 6 8 7 8 8 7 7 8 5 5 5 5 6 5 6 7 6 6 6 6 7 8 8 7 4 4 4 5 6 5 5 5 5 4 3 2 1 1
5 6 4 2 5 3 4 5 7 6 9 7 7 8 8 7 8 7 6 7 5 5 5 7 6 7 6 7 6 6 7 9 10 9 8 7 6 7 6 6 6 6 6 6 5 3 2 2 2
4 3 2 5 6 7 3 8 8 5 7 13 12 10 10 9 8 7 6 6 7 6 7 6 6 8 7 7 7 9 8 9 9 8 7 7 7 6 7 6 7 6 6 6 6 6 6 5 5
3 6 6 6 5 2 4 7 2 3 6 8 9 8 8 8 8 7 7 7 6 6 6 6 6 7 7 7 8 8 8 7 9 8 7 6 7 7 7 7 7 7 7 7 6 5 5 5 5
Wind_Direction
323 308 248 32 42 62 252 27 126 91 50 84 93 92 114 58 59 149 104 120 126 129 125 123 120 115 105 108 112 105 97 92 88 88 84 75 87 81 79 74 72 69 74 79 85 81 76 73 69
327 315 35 50 79 37 277 154 95 95 134 86 67 117 53 79 53 107 98 128 125 128 122 123 121 120 112 107 120 110 110 101 94 95 88 81 83 86 82 84 79 80 80 75 75 80 75 70 59
317 242 67 98 123 201 183 107 133 114 109 113 95 72 96 91 108 117 124 127 126 127 127 129 124 124 118 108 115 114 112 108 103 96 92 87 82 81 83 78 81 83 81 81 81 80 77 72 63
341 5 9 88 260 283 133 163 128 110 38 64 107 61 58 224 151 140 131 130 129 126 128 129 128 128 122 113 116 118 112 115 110 106 100 92 89 83 90 86 81 80 81 82 81 80 79 77 66
21 61 65 294 244 270 40 156 124 108 132 121 105 97 90 15 129 127 130 129 124 124 129 131 128 125 120 112 112 109 98 117 111 107 105 99 95 91 101 98 89 87 87 85 85 81 82 76 65
8 93 79 248 255 249 66 151 130 124 138 126 80 110 118 146 130 139 131 119 127 127 126 127 125 125 120 113 104 107 100 122 114 112 111 107 100 92 82 102 96 93 93 91 92 81 77 71 63
118 87 213 248 162 227 171 114 127 136 132 171 137 89 159 143 170 135 130 121 129 126 127 129 130 130 126 124 121 116 105 128 122 117 109 99 99 94 76 96 99 96 95 93 91 80 75 69 58
101 102 260 254 183 211 195 88 67 102 143 161 125 148 182 203 168 136 126 128 133 132 131 135 134 137 133 135 126 120 118 118 120 115 109 104 104 101 93 92 104 100 101 97 96 85 78 65 46
49 37 228 236 178 186 181 112 21 115 99 54 33 124 161 150 145 131 126 128 132 140 144 145 148 149 143 134 134 122 121 119 129 122 132 128 121 109 95 86 111 108 105 107 110 98 96 83 46
108 118 239 243 156 196 154 123 140 97 110 61 58 51 120 136 150 160 152 149 147 154 154 153 157 157 152 145 141 134 132 136 137 140 164 140 136 129 111 99 106 109 107 120 128 134 118 52 359
222 205 298 341 326 147 141 117 166 121 169 180 160 160 147 148 154 168 164 156 157 160 159 159 154 160 159 141 153 151 150 149 155 164 170 148 122 124 122 116 108 124 123 118 122 87 355 317 318
249 241 291 326 334 124 141 136 147 153 198 203 164 162 152 165 172 178 170 168 158 157 163 168 165 147 146 149 163 165 163 168 167 185 187 155 148 141 149 151 163 166 165 170 175 185 228 61 51
204 270 81 325 17 100 113 139 166 146 165 110 140 153 164 171 177 186 179 182 171 162 170 170 162 156 163 160 171 166 178 175 176 183 204 146 156 159 163 177 173 193 175 183 189 184 169 19 313
214 186 185 131 43 35 112 166 124 208 148 111 149 167 171 180 189 186 188 185 179 171 167 171 167 159 153 166 174 175 169 176 173 171 186 173 163 173 168 173 180 186 181 182 173 181 187 216 215
143 129 203 192 168 127 96 85 206 166 160 145 162 182 192 193 195 197 194 187 183 182 159 172 171 168 167 171 180 168 188 169 178 174 175 181 175 188 169 173 179 189 184 170 173 190 188 208 240
158 132 169 229 160 152 126 245 228 179 158 180 189 201 200 214 203 204 191 189 175 176 169 171 173 173 177 177 181 181 187 169 185 180 168 184 180 185 178 174 188 187 177 166 169 179 213 234 239
198 182 169 194 214 134 162 223 212 166 163 184 198 209 213 216 214 206 204 189 177 176 171 172 166 173 174 172 175 182 182 188 190 182 183 184 186 177 177 182 195 180 176 174 180 206 180 219 252
168 160 153 178 211 169 161 246 190 200 172 194 209 224 216 208 214 209 198 190 179 175 173 167 170 167 166 156 159 180 186 193 191 195 189 186 187 196 175 184 195 181 167 178 177 205 229 231 249
182 172 175 179 200 142 201 199 226 226 208 211 222 224 222 208 219 207 202 176 177 179 173 170 165 177 164 159 168 192 201 198 198 193 188 186 191 197 197 193 187 175 178 187 183 180 200 235 186
225 187 189 345 22 139 182 247 239 214 211 202 205 220 226 204 190 178 168 155 152 152 174 173 177 174 179 177 180 185 185 192 198 190 194 193 193 198 198 198 203 183 180 188 192 173 169 226 187
203 189 195 165 166 321 36 300 240 238 217 197 220 210 209 204 191 164 151 145 125 121 100 215 191 178 188 177 162 142 153 177 182 194 194 199 193 195 192 198 199 199 184 196 179 175 183 205 203
185 211 157 142 126 196 138 270 278 237 222 205 217 205 193 148 135 143 140 111 123 126 72 347 201 156 182 176 177 180 187 188 200 177 173 190 195 199 195 201 198 209 202 188 199 183 183 147 233
190 139 138 130 95 87 225 69 268 9 207 215 217 197 189 167 145 126 127 127 107 103 166 265 277 255 196 187 172 179 165 181 189 161 190 181 188 193 192 194 192 197 196 206 185 179 198 192 203
135 84 41 53 78 328 226 153 282 234 226 201 212 172 154 133 122 119 122 109 90 40 42 340 193 257 261 177 182 176 179 191 177 192 195 186 178 187 194 191 188 197 198 199 205 205 200 211 217
140 89 47 25 9 221 342 162 246 253 236 183 180 154 151 132 128 127 119 102 86 58 31 64 94 52 88 93 103 172 194 202 170 191 169 164 151 182 200 182 184 188 199 206 198 185 193 198 202
172 163 152 172 189 231 339 221 248 246 161 167 140 146 136 134 130 121 119 118 99 69 57 68 86 75 66 88 78 80 103 126 96 91 107 71 91 94 99 151 165 166 174 177 166 172 199 204 226
199 191 152 106 24 73 219 287 308 177 113 84 126 140 147 143 137 126 116 115 103 79 72 95 94 86 73 72 78 68 70 83 90 78 73 76 71 69 67 67 71 67 66 68 68 68 60 139 236
156 161 87 18 128 241 279 272 238 216 210 187 178 175 175 153 140 139 136 129 110 108 98 83 85 85 73 77 71 72 76 79 79 78 79 72 64 67 68 61 59 58 52 46 50 37 23 25 6
149 174 152 119 143 160 181 256 222 258 189 191 200 189 169 165 156 150 142 130 123 109 94 88 78 82 71 69 68 74 67 74 80 81 75 77 74 69 69 69 66 58 52 37 45 37 24 18 356
315 179 153 155 205 175 144 271 249 268 294 185 177 170 164 158 154 151 148 137 123 114 103 101 93 92 87 75 74 70 70 70 78 75 70 67 73 62 67 65 65 55 50 46 45 37 22 17 0